Overview Statistics Trail Chart Weather Telemetry Raw packets
 

This is the latest recevied weather packets stored in our database for station/object XE2AD-3. If no packets are shown the sender has not sent any weather packets the latest 10 day(s).

<< 1 2 3 4 >>
Time Temp. Humidity Pressure Rain* Wind** Luminosity Snow
1788580667 15.56° C 79% 801.1 hPa - - - -
1788579473 15° C 78% 800.6 hPa - - - -
1788577080 14.44° C 77% 800.2 hPa - - - -
1788575886 13.89° C 75% 800.3 hPa - - - -
1788574692 15° C 74% 800.4 hPa - - - -
1788573496 18.33° C 70% 800.1 hPa - - - -
1788572302 19.44° C 70% 799.6 hPa - - - -
1788569913 23.33° C 73% 798.7 hPa - - - -
1788568718 25° C 74% 798.4 hPa - - - -
1788562745 30.56° C 75% 798.2 hPa - - - -
1788523297 12.78° C 98% 800.8 hPa - - - -
1788513743 12.78° C 96% 801.7 hPa - - - -
1788506571 15° C 96% 802.1 hPa - - - -
1788502983 15° C 95% 801.8 hPa - - - -
1788498210 14.44° C 93% 801.7 hPa - - - -
1788497006 13.89° C 94% 801.6 hPa - - - -
1788495809 13.89° C 92% 801.5 hPa - - - -
1788493420 14.44° C 91% 801.3 hPa - - - -
1788492232 14.44° C 92% 801.1 hPa - - - -
1788491030 15° C 91% 800.6 hPa - - - -
1788489835 15° C 90% 800.4 hPa - - - -
1788487444 15.56° C 89% 800.5 hPa - - - -
1788486250 15.56° C 88% 800.7 hPa - - - -
1788482675 16.11° C 86% 800 hPa - - - -
1788480285 15.56° C 86% 799.5 hPa - - - -

* Rain since midnight (hover to see other rain measurements)
** Current wind speed in m/s (hover to see current wind gust speed)